Wind_Speed
12 12 12 12 13 13 13 13 12 12 12 12 12 12 12 12 12 12 12 12 12 14 14 15 15 15 16 16 17 17 19 21 20 15 14 17 17 11 6 6 5 5 6 9 10 7 6 9 10 12 10 8 5 4 8 7 4 4 4 5 5 6 7 9 9 7 3 2 3 5 6 6 4 4 2 5 15 14 12 12 12 13 11 13 21 27 28 29
12 12 12 13 13 13 13 13 13 13 13 13 13 13 12 12 12 12 12 12 12 13 14 14 15 15 16 16 17 16 18 21 19 18 22 21 18 17 13 10 12 9 6 9 13 11 7 7 8 9 6 4 4 5 5 4 5 4 3 5 5 6 9 11 11 11 7 4 4 5 5 5 3 3 1 2 11 14 11 9 13 16 13 15 20 24 27 28
12 12 13 13 13 13 13 14 14 14 14 14 13 13 13 12 12 12 12 12 12 13 14 14 14 15 15 16 15 15 17 18 13 14 15 12 16 22 19 15 16 13 10 11 14 15 11 10 12 9 5 5 5 5 6 4 4 5 5 4 5 7 11 13 12 14 12 5 3 3 1 1 2 1 1 4 11 13 10 8 11 14 14 14 14 18 23 23
12 12 12 12 13 13 13 13 13 14 14 14 14 14 13 13 12 11 11 12 12 12 13 13 14 14 15 15 13 14 15 11 6 8 6 4 6 15 20 20 17 14 11 12 14 16 16 13 13 10 7 5 5 7 6 6 4 4 5 6 7 8 11 14 13 14 12 5 2 2 1 1 4 3 1 5 10 8 7 9 12 14 15 15 13 14 17 17
13 13 13 13 13 13 13 13 13 13 14 13 13 14 14 13 12 12 12 11 12 12 12 12 13 14 14 14 12 12 9 3 1 1 1 2 2 8 17 20 17 14 12 12 13 14 16 12 10 9 7 5 6 6 6 8 6 4 6 9 11 10 12 15 12 11 9 4 5 5 4 4 6 4 3 2 5 4 5 11 15 17 15 15 14 12 12 13
13 13 13 13 13 13 13 13 14 14 14 14 13 13 14 14 13 13 12 12 12 11 12 12 13 13 13 13 10 6 3 1 6 7 2 1 3 5 12 17 17 14 11 11 11 11 11 10 9 8 5 5 7 6 7 9 8 6 7 8 12 12 13 14 12 10 6 4 5 6 6 6 5 3 3 3 8 7 8 12 15 15 15 15 14 12 11 11
13 13 13 13 13 13 14 14 14 14 14 14 14 14 14 14 14 13 12 12 12 12 12 12 12 12 13 13 6 1 0 7 14 12 5 3 3 5 9 13 15 13 11 11 10 8 7 9 9 7 5 6 7 8 9 9 9 9 8 9 10 11 13 12 12 10 3 0 2 4 6 8 3 1 3 8 13 11 12 12 14 13 13 14 13 12 11 11
13 14 13 14 14 14 14 14 14 14 15 15 14 15 14 15 14 14 13 12 12 12 11 11 11 9 11 11 4 1 3 11 16 10 8 7 6 8 10 11 13 13 13 13 11 9 8 9 9 6 5 6 6 8 9 10 9 9 9 10 9 10 12 11 11 10 5 4 4 4 3 8 5 2 3 7 14 12 13 13 15 15 12 13 11 11 12 10
14 14 14 14 14 14 14 14 14 15 15 15 15 15 15 15 15 14 13 13 12 12 11 10 10 8 8 6 2 3 6 10 11 9 11 9 8 10 11 10 13 14 12 13 14 11 7 7 8 7 6 7 7 8 9 8 6 7 9 10 10 10 12 11 12 11 7 4 6 6 6 8 5 4 4 5 14 12 14 15 15 16 13 11 10 11 11 10
15 15 15 15 14 14 14 15 15 15 15 15 15 15 15 15 15 15 14 13 12 11 11 9 8 7 6 3 2 3 7 6 6 11 11 9 10 11 11 10 13 16 11 11 13 13 9 9 9 6 7 7 7 8 8 7 6 7 9 10 11 12 11 11 14 12 7 3 5 3 3 6 4 3 4 4 13 13 13 15 14 14 12 11 10 9 9 10
15 15 15 15 15 15 15 15 15 15 16 16 16 16 16 15 15 15 15 14 13 12 11 8 6 6 5 4 2 4 10 7 5 7 8 11 12 12 13 12 14 16 12 10 13 16 16 16 12 5 5 5 6 8 8 8 8 9 10 10 11 12 11 11 13 11 7 4 5 2 4 6 4 4 6 7 9 16 15 15 15 13 12 11 11 9 8 8
16 16 16 15 16 16 16 16 16 16 17 17 18 18 17 16 15 16 17 15 13 11 9 6 4 4 5 4 6 14 17 13 11 10 9 13 11 12 12 13 15 17 16 11 13 21 22 20 14 6 4 3 5 6 6 9 9 10 10 10 11 9 10 10 8 9 8 4 6 5 5 6 5 5 9 11 7 15 17 15 15 14 12 11 11 9 7 7
16 16 16 16 16 17 17 17 17 18 18 19 19 19 18 16 16 16 16 15 12 9 8 6 2 2 4 3 12 24 25 22 21 21 15 14 10 11 11 12 16 17 18 16 17 22 22 19 12 6 5 4 4 4 7 9 7 7 7 6 7 7 7 7 5 7 9 4 7 6 4 6 7 8 9 11 8 13 16 15 14 13 12 11 10 9 7 8
17 17 16 16 16 17 18 18 19 19 19 19 19 19 19 17 17 16 16 15 12 7 4 3 1 1 2 6 18 26 24 24 24 25 22 15 13 13 15 15 18 20 21 21 21 21 19 15 10 5 5 5 4 6 9 8 5 5 5 4 4 5 5 5 4 7 8 5 9 7 4 6 8 9 10 10 9 11 14 14 14 12 11 10 9 10 8 8
17 17 17 17 17 18 18 19 20 20 20 21 20 20 19 18 16 15 15 13 9 5 3 3 3 3 3 9 19 20 14 17 22 26 23 17 16 13 17 19 20 21 21 20 19 18 16 12 6 4 3 5 5 7 6 5 5 3 4 5 3 5 5 6 7 8 9 7 9 8 4 6 6 9 10 10 11 10 13 12 13 14 13 12 9 10 8 7
17 17 17 17 18 18 19 19 20 21 21 22 21 20 19 18 15 14 13 9 5 3 4 3 7 8 3 6 10 14 9 11 17 21 18 16 16 13 16 19 17 17 16 16 16 13 13 9 4 3 3 4 4 5 5 4 5 3 4 5 4 5 4 5 8 11 12 9 9 10 5 4 5 10 11 12 13 11 14 11 14 16 14 12 9 9 10 8
17 17 18 18 18 19 19 20 20 21 22 23 23 21 19 16 13 14 11 5 2 4 6 4 5 6 6 9 11 11 10 13 15 17 16 16 17 17 16 13 11 11 12 13 14 9 7 5 2 3 3 3 3 3 4 5 5 4 4 5 6 7 5 5 7 10 14 12 10 11 8 5 6 11 12 11 13 12 15 11 14 17 13 10 9 9 11 9
18 18 18 18 19 19 19 20 21 22 23 24 24 23 20 15 12 12 7 1 2 2 6 8 5 2 6 9 8 8 10 14 18 18 18 18 18 20 17 10 8 8 8 8 9 6 3 3 3 3 3 4 4 4 5 6 6 6 6 5 6 8 8 9 8 8 12 13 12 11 10 9 8 11 11 8 9 8 12 10 12 16 13 10 9 9 10 10
18 18 19 19 20 20 20 20 21 22 24 25 25 22 16 10 6 5 3 3 3 1 3 5 5 3 4 6 9 12 11 10 19 17 17 20 19 19 18 13 8 7 5 3 5 6 4 2 3 4 5 5 6 7 8 8 8 10 10 6 6 6 7 11 12 12 11 12 14 12 11 12 11 11 11 8 6 6 10 10 9 13 13 11 10 9 10 9
19 19 20 20 21 21 21 20 21 22 23 24 24 18 8 4 3 0 2 5 6 7 8 7 10 8 10 10 12 16 11 8 14 12 16 20 17 14 13 10 6 5 5 4 5 5 5 4 5 6 7 7 9 10 11 11 10 11 10 7 8 7 6 10 12 14 11 9 14 13 10 14 13 11 12 10 9 7 10 12 9 12 12 11 11 10 9 8
20 21 21 21 22 22 21 21 22 22 21 21 19 10 2 3 3 2 3 6 11 13 14 13 13 14 15 15 17 18 10 4 7 8 15 20 15 9 7 7 5 4 5 6 5 4 5 6 7 8 8 10 11 10 11 12 12 10 8 7 8 8 7 11 15 16 11 7 11 11 9 12 12 11 12 9 7 5 8 11 9 13 12 10 11 10 12 14
21 21 21 23 22 22 22 21 22 23 22 18 10 3 6 10 10 11 9 6 10 12 15 17 16 17 18 21 25 21 12 7 8 7 12 19 13 7 5 6 6 4 6 6 5 3 5 7 9 10 10 10 11 11 10 11 11 9 6 6 6 7 7 11 16 14 7 6 8 11 9 9 11 12 12 7 9 7 8 10 10 15 14 10 10 12 17 16
21 21 22 22 22 23 21 21 23 24 21 14 8 8 10 13 13 17 12 4 11 12 12 16 16 16 17 19 23 20 13 9 8 8 13 17 9 7 6 6 7 6 6 7 6 4 4 8 11 12 10 10 11 11 8 5 6 6 5 5 6 7 6 6 10 8 2 6 6 8 4 4 6 8 8 5 8 8 8 10 9 11 11 10 15 17 17 17
21 21 22 22 23 23 20 23 23 17 15 12 14 15 16 18 17 17 9 1 9 12 11 17 15 13 17 17 17 15 10 9 7 7 15 16 7 7 6 6 8 8 6 9 11 8 8 11 11 11 12 12 11 10 7 3 3 4 4 5 5 8 8 5 9 11 7 4 5 7 4 4 3 3 6 6 5 6 7 9 8 10 16 20 21 17 15 17
21 22 22 22 23 23 23 22 14 12 16 12 15 20 21 18 19 13 5 1 6 7 9 13 10 12 21 20 15 12 8 9 8 7 12 17 11 7 6 6 6 7 9 11 11 9 12 12 9 12 14 13 12 10 6 6 3 4 3 6 8 11 11 8 10 8 6 5 2 6 4 5 5 3 6 6 4 7 6 8 8 12 20 21 18 15 15 15
21 21 21 21 22 25 22 11 9 17 19 11 12 23 20 11 12 9 4 1 5 5 6 6 7 9 15 13 11 10 8 8 10 11 10 17 16 8 6 5 4 7 9 10 8 5 9 12 9 12 14 14 14 10 5 6 2 3 3 5 9 12 9 8 9 6 1 3 2 4 4 3 6 5 8 5 5 8 8 8 7 13 17 15 12 13 14 13
21 21 20 20 20 22 15 7 16 19 10 10 16 23 20 15 15 10 3 1 4 5 5 2 3 5 7 10 12 10 6 4 9 13 12 17 18 8 6 5 4 7 7 6 5 4 8 12 11 9 10 9 9 6 4 6 4 4 4 6 11 12 9 7 5 5 3 2 1 2 5 2 4 5 8 6 5 7 8 8 11 15 16 15 13 12 13 14
21 20 19 20 20 18 12 14 18 13 7 12 15 17 20 19 14 7 3 0 4 3 2 0 1 4 3 9 14 9 6 3 6 9 11 20 19 7 6 9 6 8 8 6 5 5 9 12 10 7 5 3 4 5 6 7 5 5 6 9 11 10 10 7 5 5 2 3 2 3 5 2 4 6 7 6 5 6 8 11 16 17 15 16 15 13 13 14
22 21 20 22 22 16 9 12 13 9 12 15 13 15 20 16 9 3 2 1 3 2 1 1 1 3 2 6 10 8 7 4 3 6 10 18 18 7 5 9 10 9 9 7 7 6 5 9 10 7 5 3 3 5 6 7 6 6 7 9 9 8 9 7 6 4 1 3 3 6 3 2 4 5 4 6 7 7 7 10 15 16 15 15 14 14 13 12
22 23 22 22 21 13 8 11 16 11 18 17 14 16 15 10 4 2 1 2 3 2 2 2 1 4 4 5 6 6 8 7 5 6 8 10 12 7 2 5 9 8 8 8 8 8 7 6 7 6 6 6 5 5 7 9 8 7 6 7 7 7 6 5 5 4 3 2 5 6 3 2 3 6 3 4 5 6 7 9 11 12 13 13 12 13 14 12
24 26 24 21 18 12 8 9 11 9 16 15 14 12 8 3 2 2 3 2 4 5 2 2 4 7 8 7 6 6 8 9 6 6 7 7 8 6 2 3 5 4 5 5 6 9 11 7 3 2 2 5 6 6 7 10 10 7 5 4 3 5 4 3 1 3 2 4 5 6 5 4 3 5 4 4 3 7 12 12 12 11 10 9 10 12 12 12
26 26 25 22 18 14 12 10 9 8 11 12 12 7 2 1 1 3 3 2 4 3 1 2 6 8 8 8 7 7 7 7 8 7 7 7 6 5 5 4 3 3 4 5 3 6 8 5 3 3 1 1 4 5 5 7 7 5 5 4 1 2 2 2 2 3 4 4 4 7 6 5 4 2 3 5 7 7 11 13 14 13 12 9 10 11 11 11
27 26 24 21 17 17 18 16 11 8 10 11 8 3 2 1 3 4 4 4 4 3 6 5 4 6 8 8 6 8 8 7 8 7 7 7 6 6 8 9 6 4 3 4 3 3 4 5 4 5 3 3 5 4 3 5 3 4 5 5 3 2 1 2 3 2 3 4 6 8 7 4 1 1 3 7 8 5 8 13 15 15 14 12 11 11 10 10
27 25 20 14 14 16 16 13 6 3 8 9 3 1 1 2 3 4 6 6 8 10 11 10 9 6 7 6 3 4 5 7 8 6 6 6 5 5 7 11 11 6 3 3 3 2 3 5 5 6 4 6 8 6 5 4 2 4 4 5 4 4 4 3 2 2 3 3 5 5 5 2 2 2 2 8 10 9 9 10 13 13 13 12 12 12 11 11
25 19 13 10 12 11 8 6 3 1 7 4 1 1 3 3 3 3 5 6 8 10 11 12 12 8 5 3 4 5 5 5 7 6 6 6 6 5 5 8 11 8 4 3 3 3 4 5 7 10 8 8 9 7 6 3 2 3 2 2 4 4 5 3 2 4 4 1 3 1 1 1 3 3 2 9 11 11 11 11 10 9 9 11 13 12 11 12
23 15 8 10 12 5 4 5 5 3 5 2 1 3 4 3 4 3 3 6 7 8 11 11 9 5 4 1 6 6 4 1 4 4 3 5 5 6 5 6 9 10 6 4 2 2 3 4 5 9 11 10 9 8 6 4 2 2 1 2 6 5 7 5 2 2 3 2 2 1 2 1 2 1 3 10 11 10 11 11 10 8 8 11 12 11 11 12
20 13 6 13 15 9 7 7 8 8 4 1 1 4 3 5 7 6 7 10 10 11 10 7 6 5 4 2 4 4 2 2 4 4 2 1 1 5 5 3 4 9 10 7 3 3 4 5 6 3 7 8 8 9 8 7 6 3 1 5 3 2 2 4 2 1 3 1 3 3 5 3 3 0 1 8 10 8 9 10 10 11 12 11 11 12 11 11
15 10 8 11 9 10 9 10 13 9 3 1 3 4 4 5 7 9 9 11 12 11 9 6 5 7 3 1 3 2 5 3 3 3 1 2 1 2 1 3 4 4 6 6 4 4 3 3 7 3 0 4 2 7 7 6 5 5 4 5 2 3 1 1 2 2 2 2 3 1 3 2 2 1 2 6 8 7 7 8 10 10 11 11 10 11 12 11
7 4 6 2 6 9 8 11 11 5 1 2 4 3 4 6 9 12 13 13 12 9 8 8 6 6 4 4 5 1 7 6 3 1 1 2 2 2 4 2 5 6 6 3 1 3 1 3 3 6 1 2 3 2 5 4 5 5 3 0 2 4 3 1 2 3 3 2 2 2 2 2 2 3 3 6 7 8 8 7 8 9 8 9 9 9 10 10
4 2 2 2 5 5 4 6 5 2 2 3 4 4 6 7 9 12 13 12 10 6 6 9 9 6 4 5 7 6 2 4 4 4 2 2 2 3 4 1 4 7 6 6 4 4 2 3 2 6 3 4 2 2 2 1 2 4 4 2 1 2 2 1 1 2 4 2 2 1 1 4 4 3 3 7 7 7 8 7 7 7 8 8 8 8 8 8
3 2 2 3 3 2 4 3 2 2 3 4 4 6 8 8 9 11 13 12 9 6 7 10 9 6 4 5 7 7 6 1 3 4 3 3 2 1 1 1 4 7 5 5 4 3 2 1 4 3 3 2 2 2 6 8 7 3 1 2 1 2 4 3 2 3 2 3 2 4 2 4 4 3 2 4 6 6 7 8 7 7 8 7 6 7 7 7
3 2 3 7 4 3 4 1 2 2 3 4 5 8 10 9 9 10 11 11 9 7 7 8 8 5 3 4 6 6 6 2 2 2 2 2 2 2 3 2 2 5 5 2 2 2 1 0 1 2 1 2 3 5 9 10 9 8 6 7 5 3 3 4 3 3 1 2 1 2 3 3 3 7 9 7 5 5 5 5 7 6 6 6 4 4 5 5
2 2 4 8 4 2 2 1 3 2 3 5 7 10 11 9 10 11 10 11 9 5 4 4 4 4 3 4 7 6 5 3 3 4 3 3 3 5 3 2 3 4 4 2 3 4 3 2 2 2 2 3 4 6 8 10 10 7 6 8 7 7 4 1 4 3 2 1 1 3 1 2 3 7 9 8 9 9 8 7 6 6 6 6 5 5 5 4
3 3 3 5 3 1 2 0 2 3 4 6 9 10 9 9 9 10 10 10 9 5 2 4 5 5 4 6 10 9 5 2 2 5 4 4 3 5 3 4 4 3 2 1 1 2 2 1 2 3 3 5 6 5 5 7 6 3 5 8 9 10 9 4 2 4 2 2 4 4 1 2 2 5 8 7 6 7 6 6 6 7 6 6 6 6 6 5
3 2 1 2 3 2 2 3 2 4 4 6 8 8 8 8 8 9 10 10 10 6 2 3 6 7 6 7 11 11 5 3 1 2 3 3 2 3 4 7 5 2 1 1 3 3 0 1 2 3 2 1 1 2 1 2 2 1 5 10 12 13 10 4 2 4 2 1 4 5 4 3 3 5 8 7 5 7 6 5 7 8 8 7 7 7 6 7
2 1 2 1 2 4 1 2 1 3 3 3 5 6 7 7 6 8 9 8 6 7 5 3 6 7 6 6 9 8 5 6 5 0 2 2 1 2 2 7 8 5 3 4 3 3 2 0 1 3 4 4 4 4 4 3 2 3 6 11 12 11 11 7 4 2 0 1 3 3 7 9 6 5 6 6 7 7 6 7 8 8 9 9 7 7 7 8
1 2 2 1 2 4 2 2 3 3 2 1 1 4 8 10 8 6 8 6 3 6 5 3 4 6 6 6 6 5 6 8 6 4 3 3 2 2 4 4 3 7 7 3 1 3 3 1 2 5 3 3 5 5 4 3 3 5 7 10 12 11 12 10 5 3 3 2 3 2 7 10 5 4 6 5 6 7 6 8 8 8 8 7 6 8 10 11
1 1 1 1 1 2 3 4 4 4 3 1 0 4 7 10 8 4 6 9 7 7 5 3 7 10 9 8 6 4 6 7 7 6 6 6 5 4 6 8 6 5 3 1 3 3 2 1 2 4 3 3 3 5 4 3 3 5 7 8 10 12 11 9 4 5 4 4 6 6 9 9 4 3 5 6 6 7 7 8 9 9 10 8 9 11 12 13
2 1 2 1 1 1 1 4 3 3 4 3 3 4 4 6 7 4 3 5 6 8 6 3 7 12 12 11 8 5 7 6 4 4 3 3 5 3 4 4 3 7 8 3 3 4 1 0 3 1 3 2 5 7 6 5 5 5 7 7 10 12 11 8 6 7 6 8 11 13 15 11 6 6 8 8 7 7 8 9 11 12 12 13 14 13 12 12
3 1 2 3 1 2 1 3 4 2 4 4 2 1 1 3 6 5 3 1 2 5 6 4 5 8 10 11 8 6 6 4 4 3 1 1 3 1 2 1 1 5 8 4 3 7 4 0 4 3 1 2 7 8 7 7 6 6 8 7 8 11 9 7 6 7 8 9 10 14 16 9 5 6 9 8 8 10 11 11 11 11 11 14 15 13 12 12
7 6 5 2 2 1 2 2 3 2 3 4 2 3 4 6 8 5 4 5 8 8 8 7 5 4 6 9 9 8 9 7 6 6 3 1 2 3 2 3 3 2 6 3 2 5 3 2 2 2 3 2 2 6 8 8 6 6 7 6 6 8 7 5 4 3 3 6 7 9 11 6 2 5 9 9 10 13 13 11 11 10 11 13 14 13 12 12
10 9 8 3 2 3 2 1 3 3 1 3 4 6 6 8 9 7 3 6 9 10 9 10 8 5 4 8 8 9 10 10 8 7 6 5 5 5 3 7 9 7 2 1 2 1 0 1 2 3 3 4 6 4 7 7 6 4 3 5 4 5 7 7 6 4 4 4 3 5 6 5 3 7 10 10 11 13 11 9 9 9 10 12 12 11 11 10
Wind_Direction
350 349 349 349 347 347 346 344 342 338 336 330 324 318 312 310 308 308 310 309 313 314 315 316 317 319 320 322 322 322 322 316 312 297 256 259 267 254 227 227 263 266 231 233 232 228 218 201 219 233 235 244 234 240 255 257 249 220 206 221 242 249 252 258 257 267 299 358 356 5 19 23 56 83 349 68 88 88 80 76 71 61 71 102 123 134 135 139
349 349 349 348 347 346 345 344 342 340 338 334 330 324 318 312 309 309 308 309 312 312 314 316 317 320 322 322 322 327 326 314 300 277 263 267 265 250 242 244 250 247 219 209 215 218 209 189 209 223 224 240 230 229 233 238 245 229 213 218 227 239 251 259 267 286 303 332 7 34 32 2 7 72 22 100 103 99 88 84 88 86 87 101 122 129 131 139
349 349 349 348 348 345 344 344 342 341 338 336 333 330 324 315 311 308 308 310 309 311 313 314 317 319 323 321 325 338 327 313 294 267 280 286 253 241 234 235 241 238 230 221 208 211 220 199 198 211 219 234 236 229 219 217 236 231 222 231 239 237 252 261 267 279 281 294 33 79 85 335 321 25 141 109 94 97 108 112 105 108 117 121 129 130 133 139
348 349 349 348 348 345 344 342 341 341 337 337 335 333 330 320 315 310 308 307 305 309 310 314 318 317 322 323 332 343 324 309 282 247 288 330 238 224 217 223 234 234 237 233 214 217 231 217 199 206 218 225 232 236 231 219 214 224 216 225 251 249 259 261 259 271 279 300 55 111 108 35 328 350 64 88 92 107 141 142 132 131 135 136 138 137 137 141
349 350 349 347 347 344 343 342 340 339 337 337 335 333 331 325 320 314 310 305 303 305 307 312 314 317 322 325 339 345 331 327 329 219 27 30 178 194 205 214 222 230 238 230 221 233 248 246 220 207 217 229 228 235 239 227 214 236 235 225 240 251 265 268 271 289 305 352 43 25 19 1 339 356 342 36 121 155 150 138 138 139 141 141 141 142 141 147
349 350 349 346 345 344 342 341 340 338 337 336 333 332 330 328 323 316 312 309 307 304 307 310 313 321 322 330 343 341 344 290 309 323 329 114 117 156 192 210 219 228 231 217 221 243 254 258 243 217 212 225 230 237 243 233 217 237 254 236 233 237 252 268 280 291 319 6 40 19 343 339 0 7 332 64 121 138 132 132 136 138 139 137 138 144 148 153
349 349 348 346 345 343 342 340 338 336 335 334 333 330 329 329 326 320 314 310 310 306 309 311 316 325 328 341 350 270 190 259 284 298 259 183 131 154 178 203 216 215 206 202 214 235 242 247 242 227 216 219 231 241 252 252 234 236 247 246 243 241 249 261 270 266 256 320 77 51 331 322 343 315 354 95 121 132 128 126 125 127 130 132 138 147 152 156
349 349 348 347 344 342 341 338 336 335 334 333 331 329 328 328 327 322 315 311 309 308 309 310 319 334 341 351 358 243 242 254 274 273 207 182 154 157 169 191 204 198 194 201 210 222 237 247 236 226 231 226 230 236 247 259 252 243 241 245 248 250 258 265 270 267 235 190 137 124 269 283 280 337 349 120 134 138 133 126 123 127 132 136 145 149 153 159
349 348 347 345 343 340 338 335 335 332 331 331 328 327 326 325 326 324 317 312 309 308 309 310 317 335 352 350 336 302 260 250 259 227 191 184 172 166 171 181 192 187 193 211 221 233 241 249 237 222 235 246 247 245 244 249 253 249 245 245 243 248 258 264 271 274 264 209 146 159 202 253 278 30 330 163 147 150 141 134 131 134 142 146 149 152 156 160
348 347 345 343 340 338 336 334 333 330 329 327 325 325 324 324 324 323 319 312 308 308 307 313 320 331 345 305 258 278 261 244 202 192 189 191 180 175 177 179 189 184 194 219 223 238 244 245 245 221 235 260 259 259 256 248 253 260 262 256 244 245 251 254 261 267 275 244 140 142 208 245 254 110 285 226 150 155 142 135 138 137 145 151 149 157 157 160
347 346 344 342 339 337 335 333 331 329 327 324 324 324 322 322 321 320 319 312 305 305 304 311 327 334 322 287 248 237 250 243 192 189 195 198 190 188 186 182 191 188 198 225 228 234 241 247 255 240 223 244 256 264 267 262 271 279 286 284 263 253 252 251 256 266 283 257 147 135 252 249 242 169 227 249 164 155 148 141 145 144 147 151 152 163 162 164
346 345 343 341 338 336 334 332 330 328 326 325 324 322 322 321 320 317 314 311 304 299 303 306 329 337 307 282 229 240 255 262 262 261 215 190 198 210 198 188 197 196 200 222 240 237 241 247 255 265 244 238 254 262 271 272 277 278 283 287 283 279 262 250 253 270 280 243 160 166 239 247 243 208 210 237 202 152 152 151 152 152 149 155 159 166 171 165
344 343 341 340 338 336 334 333 331 329 327 326 324 323 324 320 317 316 310 308 302 293 301 298 277 298 304 266 241 254 271 278 278 281 249 194 190 216 211 206 207 205 208 220 240 246 250 252 257 281 288 283 269 285 301 291 276 267 272 268 282 297 276 252 236 260 268 221 168 171 222 241 238 232 216 229 216 155 155 159 157 155 150 159 161 162 168 153
343 341 339 338 336 335 335 334 333 330 327 325 323 323 324 320 315 313 309 306 301 293 295 304 284 236 253 251 270 277 281 277 273 279 264 211 187 207 215 223 219 216 218 225 241 258 269 272 270 274 287 286 284 304 310 307 291 274 283 274 259 265 274 274 243 242 254 210 176 176 208 237 231 231 224 229 221 169 161 164 159 156 153 159 158 157 161 147
342 340 338 336 335 335 335 333 332 329 326 324 322 322 321 318 310 307 314 313 304 279 258 293 233 206 283 265 280 295 291 269 255 257 258 218 197 207 210 220 228 225 223 232 248 265 284 294 284 250 263 281 291 299 297 301 296 274 267 276 256 236 251 270 255 238 241 221 189 186 211 233 226 236 228 226 229 178 164 174 161 156 155 156 159 158 152 145
340 338 336 335 333 333 333 332 331 328 327 324 321 322 318 315 306 303 315 309 289 227 200 271 216 199 286 271 286 306 279 247 235 237 244 216 208 217 210 215 228 232 231 244 257 268 284 295 289 258 256 259 259 268 285 301 289 268 234 243 249 246 244 246 244 236 237 232 199 195 210 219 218 247 238 224 229 179 163 178 159 158 161 157 163 160 150 143
339 337 335 334 331 331 331 330 329 327 325 323 322 321 315 311 297 295 309 298 257 191 196 256 233 195 250 272 301 305 246 223 217 222 231 217 217 226 219 210 213 223 229 243 252 253 266 267 238 266 257 237 235 218 249 264 259 270 241 226 239 241 239 241 239 231 229 227 211 199 203 215 218 239 240 224 223 185 168 173 154 160 166 161 166 158 150 145
338 335 333 332 329 330 330 329 328 326 324 322 322 322 315 306 285 282 299 315 118 188 240 274 285 215 247 260 268 256 238 225 207 208 220 212 218 231 230 218 197 203 217 233 241 223 221 240 201 237 245 228 236 207 213 225 220 243 241 221 232 233 235 244 245 235 220 211 211 202 198 218 232 241 252 239 221 196 176 166 148 159 162 159 167 158 151 149
335 334 332 330 328 328 329 329 327 325 326 323 323 326 316 301 287 265 237 185 141 153 253 237 200 198 261 251 235 252 267 214 191 199 210 201 207 228 238 234 199 185 205 202 216 203 183 229 222 225 236 221 221 218 227 238 229 240 248 237 234 236 238 241 241 240 225 201 203 201 189 207 225 240 258 263 256 243 194 172 139 150 157 155 161 161 153 149
334 332 331 328 327 327 327 328 326 325 327 327 332 338 327 316 351 102 206 211 207 226 250 220 190 216 261 273 273 277 280 169 170 199 200 189 193 215 236 235 194 181 212 191 202 205 171 200 227 220 224 225 225 224 231 248 251 254 264 271 270 268 261 255 250 239 223 193 199 197 176 197 214 230 246 257 271 261 183 169 145 144 156 154 157 159 137 109
333 332 330 328 326 326 326 326 323 324 325 324 330 339 299 294 292 279 292 240 222 221 242 241 215 225 242 256 272 279 284 188 180 218 194 179 185 204 217 211 194 201 218 213 218 207 177 205 228 223 224 229 233 228 225 240 254 263 271 281 286 283 279 281 275 250 219 176 188 183 164 193 205 217 235 232 236 236 157 160 156 145 154 158 154 137 102 87
333 332 329 327 327 325 326 325 320 320 318 309 307 266 252 279 276 284 298 282 259 233 235 245 235 240 241 247 260 265 277 249 210 228 185 167 177 198 187 186 196 216 208 215 239 210 199 228 229 224 228 230 237 239 228 235 247 254 263 272 277 280 291 293 287 267 207 150 178 179 173 200 201 209 228 202 179 192 164 168 163 150 161 166 142 110 94 97
334 331 329 328 327 326 326 323 316 315 310 289 246 217 262 296 303 296 291 283 291 271 241 241 234 239 240 244 254 251 258 248 214 220 181 163 180 198 188 188 196 221 208 200 223 207 208 233 222 221 232 234 242 242 225 227 252 242 235 255 267 272 288 297 303 314 84 108 136 154 169 236 209 210 238 222 184 189 172 164 152 143 145 126 110 105 109 117
333 331 330 329 328 327 329 323 315 317 320 287 251 258 282 297 297 296 299 270 287 282 252 240 231 235 233 228 234 232 243 242 219 208 175 168 188 187 197 212 195 221 223 200 210 216 235 237 212 213 231 234 245 246 217 183 260 262 227 240 266 273 283 300 314 332 4 34 82 95 41 324 279 241 267 267 200 186 163 141 121 98 94 98 103 108 116 121
332 330 329 330 330 328 329 325 315 332 332 292 263 293 307 296 287 298 340 332 267 279 257 235 219 232 231 218 210 208 223 230 223 219 177 172 184 178 198 220 201 218 222 213 213 217 240 242 208 205 223 228 238 245 214 176 235 294 247 239 255 265 279 299 307 328 0 339 2 86 64 303 300 283 269 274 192 180 151 132 128 100 96 105 112 114 117 119
331 329 329 331 330 331 335 329 311 327 326 290 287 321 334 335 324 337 21 317 271 267 248 200 170 213 219 201 192 194 214 226 211 222 202 177 184 193 196 208 214 218 218 219 218 210 235 244 225 205 211 219 226 233 201 156 194 273 247 251 263 264 268 278 295 317 350 247 255 104 129 254 302 294 264 251 170 164 147 132 118 104 107 116 120 124 127 126
329 327 329 328 329 337 339 310 313 324 317 296 315 332 345 0 357 358 47 356 277 241 213 169 156 185 185 176 176 180 210 206 178 213 216 177 181 198 203 210 215 216 226 223 220 213 212 232 244 220 207 210 208 216 197 159 185 237 228 251 266 269 260 243 254 277 250 199 203 125 136 176 289 270 259 240 169 157 156 130 94 100 116 120 123 132 132 130
326 326 328 325 326 326 303 287 306 313 293 308 322 333 340 345 347 1 74 81 289 263 170 179 172 159 173 178 172 177 217 187 158 207 200 174 178 183 201 226 235 223 230 222 224 226 200 214 234 228 222 215 179 188 196 183 206 235 221 236 256 267 265 247 218 245 256 72 328 249 148 142 270 266 273 255 206 181 169 131 107 115 125 125 131 136 130 134
327 326 325 325 325 325 306 275 270 287 314 321 329 331 331 335 343 27 100 215 291 305 146 117 137 166 217 180 168 185 219 222 200 196 170 170 186 196 199 228 245 255 261 249 239 239 212 207 207 202 211 223 206 202 204 200 211 227 225 240 261 268 270 260 219 220 149 106 264 255 163 147 272 280 279 245 213 192 170 127 118 126 128 130 137 130 127 135
329 326 325 326 320 331 350 280 261 304 334 328 326 324 320 328 7 85 195 243 278 283 132 83 144 176 194 185 173 188 210 242 249 185 153 157 188 209 239 233 239 260 273 262 251 253 255 231 196 194 196 192 207 219 222 223 217 218 222 237 260 267 274 263 208 156 108 204 240 242 215 167 263 284 266 235 217 173 140 116 118 121 121 130 131 124 132 138
328 324 324 319 306 307 326 279 264 322 342 336 333 324 314 332 72 159 220 255 274 263 180 162 190 173 185 194 186 187 206 242 253 193 166 152 174 200 233 252 239 251 271 275 266 251 249 244 206 227 208 170 196 225 238 232 217 211 214 209 257 286 311 334 319 132 155 250 229 211 217 184 206 281 297 325 8 118 125 123 126 121 116 124 121 122 132 134
326 324 319 309 296 275 259 258 271 310 338 347 344 333 350 79 201 224 256 311 279 240 154 207 204 185 192 196 198 196 193 230 244 206 177 156 166 190 190 209 210 205 262 281 277 249 245 242 203 212 267 138 197 223 255 247 215 191 197 184 191 309 326 333 287 196 203 246 219 188 204 208 195 260 331 11 38 99 123 125 130 126 120 120 113 114 125 133
324 322 315 307 295 265 257 273 288 313 342 343 336 339 85 145 216 215 232 270 269 303 356 324 254 208 195 193 212 205 182 212 238 206 176 167 171 188 195 211 212 182 216 249 254 259 264 270 236 207 193 186 207 211 227 241 212 173 174 159 161 159 157 265 264 224 216 253 238 204 204 229 229 19 27 51 56 71 99 114 126 128 129 132 115 105 116 126
323 322 317 305 286 271 272 280 278 316 329 325 335 58 141 222 240 220 228 252 272 301 320 311 301 278 217 192 199 233 198 206 225 196 164 170 183 191 195 211 223 212 192 224 234 209 229 252 240 229 199 173 198 219 217 221 212 215 201 158 164 160 158 210 230 202 218 265 272 224 197 204 180 196 122 80 68 55 63 94 117 124 132 131 115 105 107 111
324 328 325 295 275 274 270 245 192 250 286 295 65 167 200 210 253 247 245 254 263 287 298 293 296 289 252 192 158 246 263 220 224 213 176 178 194 199 190 204 222 223 191 197 229 221 229 234 211 215 211 177 185 212 225 260 309 271 245 177 207 192 151 159 214 195 173 41 324 274 180 188 171 193 112 84 70 57 59 73 95 112 125 118 112 113 112 118
328 336 321 276 264 242 166 160 155 206 245 239 135 230 219 224 250 250 272 275 268 293 305 295 290 271 259 236 177 215 273 265 247 257 210 178 190 211 211 197 205 214 203 183 214 226 225 260 239 211 209 196 185 192 198 202 231 288 332 213 229 201 145 135 246 261 91 80 286 101 101 104 99 26 48 78 69 58 60 62 67 74 86 97 107 116 120 131
332 337 298 265 255 215 155 148 170 192 209 174 211 237 245 247 254 258 278 290 294 309 314 303 299 286 254 224 204 195 173 216 228 242 268 65 239 252 248 233 212 214 216 210 230 245 206 260 288 231 205 216 194 186 203 195 166 141 202 219 252 358 87 114 142 324 61 115 257 147 143 156 117 146 56 81 77 69 69 69 66 64 73 84 98 115 126 138
326 322 288 273 239 184 165 170 178 182 176 236 251 261 270 257 263 272 279 290 298 308 309 294 294 299 289 256 264 175 150 209 232 216 284 25 275 259 14 329 310 290 256 239 239 248 196 241 294 330 135 276 228 178 212 230 183 170 203 205 147 57 3 38 113 189 140 158 285 346 126 117 103 196 166 106 104 99 87 81 79 75 83 95 106 121 131 137
309 298 294 310 127 142 164 176 177 178 187 240 245 249 262 261 264 271 275 284 293 298 297 291 285 293 312 316 306 247 171 191 193 169 326 352 273 310 26 323 293 327 341 350 258 258 172 149 286 310 328 356 342 198 208 247 229 223 252 5 102 131 161 166 149 164 143 162 277 343 22 328 266 248 192 145 132 122 113 98 89 90 98 108 119 128 133 140
264 254 287 105 122 151 174 169 173 195 217 232 246 249 267 271 265 264 265 268 274 271 275 289 295 301 317 317 314 319 234 180 145 138 180 226 257 326 356 329 307 326 352 35 35 335 340 129 198 292 333 70 9 266 194 12 315 254 255 225 137 117 124 123 189 172 136 140 200 120 0 275 259 251 179 145 131 127 128 117 104 107 111 114 125 131 135 141
256 302 251 176 173 178 136 134 180 219 229 245 251 253 263 269 270 273 273 271 268 255 251 268 284 298 319 327 325 329 335 350 140 147 168 171 160 336 289 285 342 347 6 33 28 18 355 172 180 257 339 86 233 321 42 37 24 25 320 281 184 130 113 96 315 272 132 114 177 157 159 269 287 335 22 109 116 121 124 120 114 110 111 115 124 127 135 139
242 319 185 167 174 168 129 142 237 217 239 264 275 277 278 276 275 280 284 283 275 262 258 259 264 276 306 325 315 311 317 323 120 84 32 94 138 225 238 259 342 17 34 16 332 20 49 10 165 208 260 213 259 356 40 42 31 45 40 6 2 31 100 138 198 269 352 34 335 100 115 257 319 24 23 15 30 48 46 72 87 84 89 94 91 91 103 117
243 309 154 151 171 194 147 295 316 337 294 302 308 297 293 292 290 296 300 297 286 272 284 297 300 314 340 325 303 297 309 329 118 139 152 137 184 226 213 61 31 33 33 4 322 353 16 11 0 333 309 320 338 4 41 48 36 39 30 13 15 15 3 191 175 163 157 185 74 61 68 274 345 41 48 20 13 30 21 19 54 68 74 78 74 68 64 59
289 297 149 150 190 218 83 165 314 320 297 314 320 306 301 297 287 291 297 298 298 294 310 335 341 336 336 333 313 295 283 302 117 134 148 150 188 230 192 94 62 61 70 163 222 332 344 356 33 32 0 347 348 352 15 30 33 37 10 13 24 21 9 358 64 79 107 184 133 120 194 270 350 56 76 61 36 45 30 7 34 56 62 64 61 52 40 18
293 282 105 148 176 100 95 174 247 301 298 320 319 303 300 289 272 281 289 290 301 319 6 353 337 326 322 332 317 297 274 276 290 103 109 127 157 240 188 134 105 79 40 76 112 112 170 229 90 86 101 153 267 261 259 336 358 32 18 23 27 20 16 20 80 81 74 216 115 124 153 139 89 80 86 87 71 55 38 27 37 41 44 49 55 54 40 23
313 350 20 8 29 47 63 220 322 326 305 337 326 302 302 301 295 302 300 290 304 339 7 354 331 327 317 316 313 311 324 319 306 179 124 113 123 251 172 143 155 157 94 19 28 98 126 230 156 148 162 176 190 197 185 169 97 64 39 32 31 25 25 42 76 85 109 108 71 112 141 125 109 107 110 107 88 69 53 55 51 39 35 36 46 57 52 42
337 346 358 351 348 9 350 323 4 343 278 151 311 301 320 327 327 330 323 315 337 355 350 335 330 325 310 309 311 313 334 344 8 38 7 4 34 0 15 39 143 140 119 98 18 73 87 336 217 178 188 206 177 165 166 155 96 76 63 45 42 40 38 49 58 307 276 130 82 71 123 119 122 136 124 100 83 80 74 71 68 58 49 43 49 58 54 51
117 221 335 153 211 346 336 338 4 345 321 96 218 320 347 339 329 346 338 323 334 353 350 352 350 341 342 0 6 345 348 11 35 27 4 1 1 357 7 14 33 40 27 137 98 70 103 236 231 168 195 250 177 133 126 113 78 73 78 67 61 56 47 49 32 306 283 145 135 124 105 95 84 77 71 61 67 78 81 81 80 72 61 61 68 68 63 59
56 99 355 352 131 108 348 339 358 346 345 21 12 349 2 349 342 2 342 304 323 353 8 17 355 354 7 25 34 24 15 21 16 14 28 354 339 5 20 0 27 16 357 19 52 13 70 203 310 246 183 187 84 84 85 86 85 84 78 72 76 71 58 49 18 350 32 97 119 113 95 72 44 40 48 60 72 75 72 72 74 74 70 71 76 75 71 67
27 38 358 327 337 101 85 0 3 0 357 13 27 337 325 16 19 1 312 288 11 3 13 23 358 360 15 26 34 27 14 6 347 0 96 245 308 35 73 315 309 6 2 19 15 355 16 297 295 317 78 99 93 90 73 67 76 85 75 66 77 77 57 40 21 5 40 78 96 98 90 71 39 48 53 58 70 72 66 62 66 72 77 81 83 82 78 73
6 2 9 339 300 0 80 29 5 20 2 346 351 9 359 18 34 17 318 1 26 23 16 16 14 7 16 27 26 3 347 338 325 321 311 282 261 232 192 158 141 41 354 345 30 10 359 278 283 19 46 27 98 110 91 73 58 57 57 36 42 73 73 57 49 25 65 88 83 82 87 84 72 76 63 51 61 70 66 62 65 67 69 77 81 81 79 76
2 357 360 358 278 335 44 69 16 34 0 305 341 13 7 2 17 26 355 352 11 20 15 12 15 11 18 27 7 333 321 316 305 302 301 289 271 266 211 163 160 147 147 202 122 75 304 72 15 39 62 351 345 51 93 86 57 39 6 323 345 83 100 85 71 72 93 99 81 80 98 108 107 90 77 62 63 69 63 57 66 70 70 74 78 80 80 75
Height
798 797 796 795 793 792 791 790 790 788 787 786 785 785 784 783 782 781 781 780 779 779 778 778 777 776 774 773 772 771 769 767 764 765 762 749 744 748 749 750 751 752 753 754 756 756 757 758 758 759 761 761 760 758 755 752 749 754 762 771 775 772 764 751 744 740 737 734 728 722 718 721 725 720 713 714 725 733 736 738 736 735 733 734 737 742 747 752
797 796 795 794 793 791 790 789 788 788 787 786 785 784 783 782 781 780 779 778 778 778 778 777 776 775 774 773 771 770 768 765 763 760 751 742 743 747 747 748 750 751 752 753 754 754 756 757 757 758 760 761 759 756 756 752 749 756 761 767 769 762 751 740 737 735 733 733 727 722 719 720 723 722 716 722 735 737 743 747 741 743 744 741 742 744 749 752
797 796 794 793 792 791 790 789 788 787 786 785 784 783 782 781 780 779 779 778 777 777 777 776 775 774 774 772 771 770 767 765 762 753 741 738 741 742 744 747 748 750 751 752 753 753 754 754 755 758 760 762 758 755 757 752 751 753 757 765 761 750 743 735 734 733 730 729 726 724 720 721 721 718 718 725 736 740 746 750 747 750 749 748 746 746 750 752
796 795 794 792 791 790 789 788 787 786 785 785 783 783 781 780 779 778 777 777 777 777 776 775 775 774 773 771 770 770 768 764 755 743 738 738 738 739 742 745 747 749 750 751 752 753 753 753 754 756 759 762 757 754 756 752 752 750 752 760 752 744 743 734 731 729 726 724 724 724 721 725 721 716 719 725 738 745 743 742 743 747 747 747 748 747 749 752
796 794 793 792 790 789 788 787 786 785 784 783 783 782 780 779 778 777 776 776 776 775 775 774 774 773 772 771 770 769 769 764 748 738 739 739 738 739 741 744 747 748 749 751 752 752 753 752 752 754 758 760 758 756 756 748 747 750 748 749 743 741 742 731 727 728 725 722 723 725 725 725 721 718 720 723 738 744 737 734 735 738 741 743 745 746 748 751
795 794 793 791 790 789 787 786 785 784 783 782 781 780 779 778 777 776 776 775 775 774 774 773 772 772 771 770 770 770 770 761 743 739 741 739 739 739 741 744 746 747 748 750 751 752 752 751 752 755 756 757 758 756 753 744 743 751 748 741 738 738 737 729 726 727 724 723 725 727 725 722 724 725 721 723 734 734 729 730 731 733 735 739 742 745 748 751
795 794 792 791 789 788 786 786 784 783 782 781 780 779 778 777 776 776 775 774 774 773 773 772 772 771 770 769 769 770 772 758 740 740 741 739 740 739 741 743 745 747 748 749 750 751 751 752 753 752 754 756 756 753 749 743 741 748 748 740 735 733 732 727 725 725 723 724 724 723 724 725 730 729 723 727 730 726 726 726 729 733 734 739 743 745 748 750
794 793 791 790 788 787 786 785 784 783 781 780 779 778 777 776 775 774 774 774 773 772 772 772 771 771 770 769 769 770 769 753 737 739 740 740 741 739 742 743 744 746 746 748 748 749 750 751 750 749 754 754 750 749 746 744 743 744 745 738 732 730 728 724 723 723 722 722 719 721 728 729 728 726 726 731 729 724 724 725 728 733 737 741 744 746 748 750
793 792 790 789 788 787 786 785 783 782 781 779 778 777 776 775 774 774 773 773 772 772 771 771 771 770 771 770 771 770 756 740 736 739 740 740 740 740 741 741 743 745 746 747 746 747 749 749 747 745 750 749 746 746 742 747 748 740 737 734 731 730 726 724 723 722 722 721 719 724 730 728 723 724 729 729 727 725 724 725 727 732 739 742 745 746 747 750
792 791 790 788 787 786 785 784 783 781 780 779 777 776 775 774 774 773 772 772 771 771 770 771 770 770 772 769 773 769 746 735 737 738 739 740 740 740 740 740 742 743 745 746 745 746 746 745 742 739 744 745 744 744 741 744 742 733 732 731 728 728 724 722 723 721 721 720 720 726 731 727 721 728 735 726 722 726 726 728 728 732 739 742 743 745 746 749
792 790 789 788 787 786 784 783 782 780 779 778 777 775 774 773 773 772 771 771 770 770 770 770 770 770 771 769 774 765 740 736 740 737 738 738 739 740 739 740 741 742 744 744 744 742 742 740 736 737 743 743 742 742 739 736 734 730 731 732 728 726 724 722 722 720 721 721 718 722 729 728 724 731 735 724 720 725 727 729 730 734 739 740 743 744 745 748
791 790 788 787 786 784 783 782 780 780 778 777 776 774 773 773 772 771 770 770 769 770 770 769 770 770 770 771 768 752 735 736 739 739 740 737 738 739 739 740 740 741 742 742 742 739 738 736 734 740 742 740 743 745 738 730 730 730 731 736 733 728 727 723 722 720 721 724 716 720 735 736 732 732 727 719 719 723 725 728 731 734 738 740 742 744 745 747
790 789 788 786 785 783 782 781 779 778 777 776 775 773 772 771 770 770 769 768 768 769 769 769 769 769 772 767 751 739 736 737 736 737 740 738 738 739 739 740 739 740 740 740 739 736 736 735 734 738 737 739 744 741 735 729 731 732 731 737 738 738 735 724 721 721 722 722 713 724 747 747 734 728 722 716 716 722 727 728 729 732 736 739 741 743 745 746
790 789 787 786 784 783 781 780 778 777 776 775 773 772 771 770 770 768 767 767 766 768 768 768 769 769 772 760 739 735 736 735 735 734 736 737 736 738 739 738 738 739 738 738 737 735 735 734 733 735 735 738 739 736 736 736 735 735 736 737 740 748 743 725 721 723 724 721 711 725 749 746 733 726 719 714 713 720 728 727 728 731 734 737 739 741 744 745
790 788 786 785 783 782 780 779 777 775 774 773 771 771 769 768 768 766 767 766 765 767 766 768 768 768 770 755 736 733 732 732 734 731 732 734 734 736 737 737 737 736 737 737 735 735 734 733 735 739 739 736 737 742 745 745 740 738 746 749 744 747 744 729 721 722 725 721 712 725 745 741 731 723 715 712 712 717 726 727 727 730 733 737 738 740 743 745
789 787 786 784 782 781 779 777 776 774 773 771 770 769 767 767 766 765 765 764 765 765 766 768 766 768 769 752 734 731 730 729 729 729 731 731 732 734 734 735 735 735 736 735 734 734 733 734 736 738 739 739 743 749 752 754 750 743 749 755 748 745 745 735 724 717 720 722 716 723 738 738 728 720 714 711 711 714 721 725 726 729 732 735 738 739 741 745
788 787 785 784 782 780 778 777 775 773 771 770 768 766 765 765 763 763 764 763 764 764 765 766 764 768 760 741 734 731 726 725 726 728 729 729 731 731 732 733 733 734 734 734 735 734 735 737 739 740 740 743 745 750 760 768 764 752 748 750 745 741 743 739 729 717 714 720 721 722 729 732 725 717 713 710 710 712 715 718 724 728 730 733 737 738 739 743
788 786 784 782 781 779 777 776 774 772 770 768 766 764 762 762 761 762 762 763 764 765 766 764 766 770 753 734 734 728 721 722 723 725 727 728 730 729 730 730 731 733 735 737 736 736 739 738 740 745 746 747 747 752 765 767 760 756 751 749 745 739 739 738 730 717 712 718 722 724 728 728 722 715 711 709 709 713 714 714 720 726 730 733 736 736 738 741
787 785 783 781 779 778 776 775 773 771 769 766 765 763 760 759 759 760 761 763 763 763 762 759 761 759 742 729 727 722 718 718 720 723 724 725 728 728 728 728 729 733 738 743 741 738 740 743 746 752 753 751 748 749 754 751 745 745 743 743 745 741 737 731 722 711 708 716 720 722 727 726 722 716 710 708 707 712 715 713 717 726 729 732 735 736 737 741
786 784 782 780 778 776 775 773 772 770 769 766 764 763 760 758 758 759 760 761 757 750 746 746 747 743 733 726 722 720 720 717 718 720 720 722 726 727 728 728 730 734 739 744 744 738 739 750 754 753 752 748 743 741 740 739 737 737 737 739 739 738 735 724 714 704 700 713 718 716 722 723 720 716 710 707 707 709 712 713 717 726 729 731 735 737 740 748
785 783 781 779 777 775 774 772 771 770 769 768 767 767 763 758 759 757 755 752 745 740 739 737 738 735 729 725 720 720 722 720 719 717 718 720 722 728 730 729 735 741 740 740 741 737 740 753 753 745 743 739 737 736 735 736 736 736 739 741 738 736 731 719 711 700 693 708 716 712 719 722 718 715 708 707 710 710 710 713 718 725 729 731 733 739 748 757
784 782 780 778 775 773 772 770 769 768 768 768 768 768 761 755 755 753 751 748 737 734 736 731 731 729 723 722 718 719 724 724 723 718 716 718 722 730 730 729 738 742 738 738 742 745 749 752 744 736 734 733 733 732 733 735 735 737 738 740 741 735 729 721 707 695 690 704 714 712 716 720 715 711 708 707 708 708 708 710 715 722 727 729 734 744 755 761
783 780 779 777 774 772 770 768 767 766 766 765 765 764 757 751 750 749 750 750 738 728 728 726 725 724 720 719 716 717 723 722 723 719 713 717 723 726 729 732 738 739 738 741 745 752 755 745 733 729 730 731 733 731 732 733 734 737 737 741 742 732 732 733 716 699 692 699 710 713 716 718 714 710 708 707 705 704 705 707 710 717 725 731 740 749 754 757
782 779 778 775 772 771 768 766 764 763 763 762 761 756 752 750 749 750 749 751 744 726 717 716 715 715 712 711 711 715 720 716 717 715 710 715 722 724 728 730 735 738 737 737 739 746 745 730 723 726 728 729 733 731 731 733 735 734 732 736 738 730 731 734 724 711 701 699 704 712 725 724 715 715 712 706 706 705 705 708 710 719 732 740 747 752 752 753
780 779 777 774 772 769 767 766 762 762 762 760 758 752 750 750 748 751 750 754 751 726 710 708 707 705 700 702 708 709 714 713 710 709 706 710 717 723 727 726 730 738 735 731 735 740 734 720 718 726 727 726 730 732 729 730 736 736 730 728 728 726 728 729 726 724 725 722 709 712 739 741 719 717 717 709 710 710 708 710 712 726 742 746 749 753 752 753
780 778 775 774 772 768 766 764 761 762 760 757 756 751 751 750 749 751 752 762 758 728 709 705 701 698 694 700 703 704 716 714 703 703 704 706 710 716 725 725 725 730 728 725 728 731 725 716 715 721 724 725 727 729 724 723 736 741 730 722 721 721 725 729 727 732 741 737 716 712 739 749 730 720 718 713 714 714 711 713 716 731 746 747 748 752 750 751
779 777 775 774 772 770 769 765 763 763 760 756 754 752 751 749 750 749 755 771 756 717 705 703 697 695 692 694 696 706 722 713 700 702 700 704 707 709 723 726 723 724 718 720 731 726 716 715 715 715 718 723 726 727 720 719 735 740 724 719 722 720 723 726 726 732 735 729 722 717 727 746 744 728 716 712 717 719 715 719 730 740 747 748 750 751 750 751
778 775 775 773 771 773 771 768 766 762 759 757 753 754 752 750 751 751 764 777 742 701 699 700 693 692 690 690 692 702 709 703 706 707 695 701 706 709 723 724 721 721 712 720 736 723 709 714 716 712 716 721 721 720 715 717 729 729 717 716 720 718 719 718 722 729 726 728 739 729 723 746 751 729 715 714 720 725 721 727 741 745 745 747 750 751 751 752
776 774 773 771 770 770 769 769 767 761 758 755 755 755 752 752 752 754 772 771 729 698 697 696 694 694 692 692 695 699 700 700 707 702 693 701 704 706 719 718 717 720 713 717 726 717 706 706 706 708 715 717 715 711 709 715 722 717 712 715 716 716 716 716 721 726 726 738 749 735 726 747 752 730 720 721 721 725 725 729 739 741 741 743 745 749 752 753
774 773 772 770 768 767 768 767 762 758 757 755 757 755 753 756 756 767 781 761 724 705 697 697 699 696 696 700 702 701 702 702 701 697 698 704 704 705 710 709 711 718 717 715 715 710 703 698 697 702 707 708 707 707 707 710 712 710 713 717 719 719 716 718 719 720 735 750 746 732 725 740 752 736 721 722 717 715 723 733 739 740 741 741 742 748 751 753
771 770 770 769 768 767 768 764 758 758 758 757 757 754 756 758 760 777 774 741 720 709 698 701 700 694 698 705 707 705 705 704 700 701 705 706 710 713 713 715 716 720 724 721 717 710 703 702 701 698 698 700 705 708 706 704 704 709 715 719 729 730 724 727 725 725 749 760 741 726 723 734 752 743 727 723 714 709 720 732 738 741 742 741 742 746 750 752
768 767 766 766 765 765 765 760 756 758 758 757 757 756 760 764 768 773 756 731 723 709 698 702 698 694 698 701 705 705 706 707 701 702 706 709 717 718 719 723 723 730 737 730 724 717 708 706 702 698 696 697 707 714 712 706 705 712 717 722 739 747 744 749 746 742 754 752 732 722 725 737 749 743 732 727 719 715 717 723 732 738 739 740 743 747 750 753
765 763 762 761 761 760 758 756 756 757 757 757 758 758 763 772 771 760 748 738 724 702 697 700 694 692 697 702 706 701 703 707 701 700 702 705 716 718 716 717 715 726 735 729 728 728 721 712 702 703 702 697 705 717 721 716 710 715 721 727 743 755 763 768 758 751 753 744 727 719 726 743 749 740 732 727 723 720 717 721 728 732 735 739 744 750 754 756
761 760 758 757 756 755 754 755 756 756 757 758 760 763 769 776 764 746 743 738 719 703 703 702 696 695 695 700 703 699 704 707 698 698 703 707 718 721 718 715 711 717 724 727 729 730 734 730 712 708 706 699 701 709 713 712 710 712 711 717 733 743 755 765 759 755 755 745 731 725 734 750 751 741 730 725 724 722 722 726 729 732 735 738 745 753 758 761
759 757 756 754 754 753 752 755 755 756 759 760 763 768 772 771 758 746 741 731 718 712 706 699 698 701 698 698 700 699 704 707 699 698 704 710 718 720 718 715 711 712 721 732 729 722 731 728 706 697 697 695 700 700 699 707 717 713 705 715 728 727 731 748 752 748 747 747 741 738 744 745 739 733 725 725 728 727 729 731 732 736 737 739 749 756 760 765
756 755 755 753 752 752 753 754 755 757 759 761 767 770 766 759 749 743 734 722 718 715 711 707 703 706 706 701 701 701 701 707 709 706 705 708 713 713 711 709 706 707 715 725 724 719 727 721 698 693 695 691 695 696 694 706 719 717 715 721 719 710 715 736 750 742 742 754 750 744 749 744 738 737 730 731 737 736 736 738 738 741 740 743 752 758 762 765
755 754 753 751 750 751 752 753 754 757 758 762 769 767 758 748 740 735 727 719 717 715 718 723 713 707 709 705 701 701 704 711 713 712 712 715 719 717 711 705 702 702 704 711 715 713 720 722 702 694 701 693 687 692 692 695 704 715 722 716 707 708 713 728 749 751 752 762 752 744 752 753 752 751 739 738 745 744 743 744 744 746 747 751 757 760 764 765
756 755 752 748 748 749 751 752 754 756 758 764 768 763 753 746 737 731 726 722 720 719 724 728 717 706 707 708 703 699 708 719 717 714 717 723 725 719 715 712 706 702 699 703 711 707 710 725 711 693 700 698 686 694 703 696 694 703 708 701 707 727 732 734 747 755 759 765 755 749 754 757 759 754 745 746 750 749 749 748 749 751 754 758 761 763 765 766
758 757 753 748 747 749 750 752 753 755 760 766 768 760 750 744 737 731 727 724 724 725 727 724 716 707 705 706 704 699 705 716 719 720 725 732 728 716 715 717 710 705 701 701 711 707 705 724 723 699 694 699 697 702 713 710 698 696 700 701 708 723 732 734 740 746 755 763 763 763 764 762 760 753 746 749 749 749 750 750 753 756 756 759 761 762 764 765
757 758 754 749 749 750 750 752 754 758 763 764 762 756 747 741 735 727 724 723 722 722 723 720 715 712 708 704 704 702 701 707 718 726 730 735 731 718 714 714 710 707 703 702 709 711 708 718 726 711 696 707 718 713 710 715 711 707 710 712 714 717 723 730 735 735 741 757 766 769 772 765 754 746 744 745 747 747 748 750 755 757 757 760 760 761 762 763
757 758 754 748 749 750 750 754 757 759 762 760 756 752 745 739 733 726 720 718 717 714 714 714 713 713 711 709 709 705 704 710 718 722 724 727 727 722 715 711 711 710 708 710 711 715 719 720 723 719 711 718 724 710 702 710 714 715 718 717 717 719 724 737 747 736 731 747 757 761 773 769 752 747 746 744 746 747 746 749 755 758 759 762 762 762 762 762
758 757 752 748 750 750 752 757 757 756 758 756 752 747 740 735 732 727 720 716 714 710 708 707 708 708 709 710 710 706 706 711 714 717 720 720 722 723 715 708 708 708 713 720 715 712 718 720 721 722 718 717 713 704 703 706 707 714 723 724 722 723 725 737 749 743 737 747 751 754 770 769 756 755 757 754 753 752 751 753 758 762 764 766 767 766 766 765
757 754 749 748 750 749 754 760 758 757 758 754 749 744 740 736 733 729 724 720 716 710 709 709 707 708 708 708 709 706 706 709 710 715 720 720 719 717 710 706 708 708 714 721 718 712 716 724 728 727 721 715 708 704 705 707 711 720 728 729 729 732 730 728 734 738 741 750 754 761 773 769 761 761 762 764 764 759 757 758 760 765 767 769 771 770 769 769
756 753 749 750 750 749 757 764 763 764 761 755 752 748 742 737 734 731 728 724 718 712 712 713 710 709 708 708 710 706 705 710 711 710 714 716 715 709 704 705 708 711 716 720 718 717 724 732 735 737 738 733 725 721 720 723 728 734 737 735 734 735 730 726 729 735 742 747 750 762 776 775 768 764 764 768 770 766 762 760 761 763 766 769 771 771 772 772
757 754 750 750 750 751 758 762 763 764 761 759 758 753 746 739 732 728 726 723 717 712 713 714 711 710 709 710 713 706 700 706 710 709 708 711 711 706 703 705 709 712 715 715 715 719 729 734 735 742 751 750 747 744 742 741 740 740 741 739 740 739 735 733 733 736 744 748 745 756 773 777 771 768 768 770 771 772 770 766 765 766 768 770 772 774 776 777
757 756 755 755 753 754 758 758 758 761 761 764 764 755 748 743 732 726 726 723 717 713 714 715 713 713 713 714 717 713 704 703 706 709 710 711 712 707 702 704 707 710 713 714 715 720 730 733 732 738 744 744 745 744 740 739 740 744 745 744 745 746 743 744 744 744 751 753 752 758 766 773 776 772 770 771 771 775 777 774 773 773 773 774 775 776 777 778
759 760 760 760 760 759 760 758 758 760 760 765 767 758 753 750 741 733 730 725 718 716 717 716 716 719 720 718 719 717 711 709 711 714 715 715 713 707 703 705 707 709 711 713 715 722 733 736 731 733 735 732 732 734 734 735 737 743 747 749 752 751 750 754 759 761 760 755 760 766 764 769 777 773 772 774 775 778 780 780 781 780 780 780 778 778 779 781
759 761 759 760 763 765 764 761 760 761 760 761 762 759 758 757 751 745 740 731 723 721 723 725 726 727 724 722 724 724 720 720 723 724 722 722 720 715 713 713 714 716 716 714 716 724 736 739 732 730 732 728 725 728 733 735 737 741 746 750 753 754 757 761 764 765 757 750 760 770 769 772 777 776 778 780 779 781 781 781 782 783 785 786 785 787 790 794
757 760 758 758 761 763 763 761 760 762 761 759 760 761 760 758 755 753 750 745 738 731 731 737 739 733 727 725 729 734 734 735 737 734 731 732 729 726 728 725 721 722 723 722 724 727 733 739 737 733 731 729 728 730 733 735 740 745 748 750 753 757 762 765 763 761 754 753 762 769 774 783 787 785 785 784 783 784 783 783 785 787 792 794 795 799 802 803
760 762 761 760 760 760 760 760 760 761 761 760 761 761 758 755 754 756 753 749 747 739 736 741 742 735 731 731 733 737 737 737 739 736 734 736 733 730 734 735 731 729 730 732 734 733 736 744 744 736 734 735 732 733 736 739 744 749 752 753 754 758 764 766 766 764 762 765 769 772 782 795 795 790 789 787 786 787 788 791 793 795 798 798 800 804 805 806
763 763 762 764 763 759 760 761 760 762 764 762 759 756 753 750 750 754 751 744 742 741 739 740 739 736 735 735 737 738 733 731 732 730 728 731 730 726 726 730 733 735 735 737 739 739 741 745 743 738 741 745 739 737 742 745 747 753 759 759 758 759 765 769 769 769 770 772 773 776 788 799 797 791 791 791 791 791 795 799 800 801 801 800 802 805 806 807
763 762 761 765 765 760 759 761 760 763 766 763 757 754 753 751 746 749 752 746 740 739 739 738 739 739 740 740 740 738 732 728 726 723 722 722 721 719 717 720 724 729 735 738 741 743 743 743 745 745 751 758 754 747 747 750 756 766 770 768 765 763 766 770 771 772 775 776 778 783 791 798 797 792 793 796 796 797 801 804 805 806 805 805 806 807 808 809